sat.trackr.live / text

‹ back to catalog

STARLINK-30767

NORAD 58126 · 2023-162J

PAYLOAD ACTIVE UNKNOWN

§ Identity

Operator
Country
US
Launch date
2023-10-22
Launch site
AFETR
Launch vehicle
Mass (kg)
RCS (m²)

Purposes: comms

External: N2YO · Heavens-Above · Gunter

§ Orbital elements

Epoch: 2026-05-25T04:25:14.314944Z

Period
94.27 min
Inclination
43.0045°
Eccentricity
0.0001448
Mean motion
15.27571074 rev/d
Perigee alt
482.1 km
Apogee alt
484.1 km
Semi-major
6,861.2 km
B*
1.6323e-5
RAAN
57.2744°
Arg perigee
274.1939°
Mean anomaly
85.8747°
Rev number
14,404

§ Raw data

STARLINK-307671 58126U 23162J   26145.18419346  .00000187  00000+0  16323-4 0  99942 58126  43.0045  57.2744 0001448 274.1939  85.8747 15.27571074144042

JSON: /api/v1/satellites/58126 · /tle

For live sub-satellite position, see the globe view (requires WebGL).

§ Visibility from observer

Set your observer location to see the next 7 days of passes ≥ 10°. The values pass through the URL so the page stays shareable.

No JS? Fill the form by hand. The geolocation button needs JavaScript.